Location: Newark
(58.9986°N, 38.5006°E)
Time: 07:46:52
(UTC+00:00)

Explorer 7 - Pass Details

Date: 20 April 2021
Orbit: 484 x 677 km, 50.3° (Epoch: 11 May)

Event Time Altitude Azimuth Distance (km) Brightness Sun altitude
Rises 20:39:29 0° 255° (WSW) 2,748 10.4 -18.6°
Reaches altitude 10° 20:41:56 10° 243° (WSW) 1,888 9.4 -18.6°
Enters shadow 20:42:37 13° 237° (WSW) 1,680 9.1 -18.7°
